< < Back
Terminal Aerodrome Forecast


Current Version              Previous Versions:   1  2  3  4  5  6  7  8  9  

Terminal Aerodrome Forecast

915
FTUS42 KJAX 182300
TAFJAX
TAF
KJAX 182338Z 1900/1924 08004KT P6SM VCSH SCT035 BKN250
     FM190800 00000KT P6SM SCT015 BKN200
     FM191400 06006KT P6SM VCSH SCT025 BKN200
     FM191800 06007KT P6SM VCTS BKN035CB=

Latest METAR

737
SAUS80 KWBC 191900
MTRJAX
METAR KJAX 191856Z 04004KT 10SM SCT025 SCT085 BKN150 OVC200 27/23 A2998
RMK AO2 TSB20E37 SLP153 T02720233


USA.gov is the U.S. government's official web portal to all federal, state and local government web resources and services.